CZ-6A DEB, 61359

Orbit data source: Space-Track

CZ-6A DEB, 61359 is space debris in LEO originally from a launch on Tue, 06 Aug 2024 UTC launched from the Taiyaun Space Center, China (TSC). Debris objects in space refer to the collection of defunct objects orbiting the Earth. Examples of debris include non-operational satellites, rocket bodies, and fragments generated from explosions, collisions, or faulty payload assembly.

Loading next visibility...
Identifier
61359, 2024-140VY
Orbit
LEO
Country
Flag of CNCN / PRC
Related business
Manufacturer
SAST
Mission
Spacecraft
Bus & Motor
Unknown
Mass
Unknown
Launch date (UTC)
2024-08-06 (2 years ago)
Launch vehicle
Unknown
Launch site
Taiyaun Space Center, China (TSC)
Object type
Payload
Rocket body
Debris
Shape & HBR
Unknown shape, 0.1 m
Radar Cross Section
Medium (>0.1 m² and <1 m²)

Expand to show TLE details & history
Last TLE update: 14 hours ago

TLE from 14 hours ago
0 CZ-6A DEB
1 61359U 24140VY  26171.31053875  .00001590  00000-0  67897-3 0  9999
2 61359  89.0563 278.1971 0044989 172.7599 187.4253 14.24065695 93033
Epoch: 2026-06-20T07:27Z
TLE epoch observation values (Epoch: 2026-06-20T07:27:10.548Z)
Latitude
-0.00003°
Longitude
-102.12384°
Altitude
846.779 km
Speed
7.413 km/s
True Right ascension
18h 32m 47s
True Declination
0° 00' 00"
Sunlit
Object was in full shadow at epoch
Visualization orbit readout
Latitude
Unknown
Longitude
Unknown
Altitude
Unknown
Speed
Unknown
Apparent Right ascension
Unknown
Apparent Declination
Unknown
Sunlit
N/A
Visualization observer readout
Local Sidereal Time
08:33:03
Azimuth
Unknown
Elevation
Unknown
Doppler factor
Unknown
Orbital elements
Apogee altitude
840.913 km
Perigee altitude
776.248 km
Semi-major axis
7,186.718 km
Eccentricity
0.0045
Inclination
89.0563°
RAAN
278.1971°
Arg. of periapsis
172.7599°
True anomaly
187.35905°
Mean anomaly
187.4253°
Eccentric anomaly
187.39214°
Mean motion
3.56244 °/min
Orbital period
101.05 mins
BSTAR
0.00067897
Loading maneuver chart data...
Computing Atmospheric mass density...
Loading historical data...
Loading historical data...
Loading historical data...
Loading historical data...
Loading historical data...
Loading historical data...
Loading historical data...

Documentation

Showing up to 5 results
|